This demonstration page uses our WeatherBlox Daily Observations layout. Learn more.

Left ArrowRight Arrow

Hourly Observations for December 21, 2019

Temp ( °F °C ) Dew Point ( °F °C ) Humidity (%) Winds ( mph kmh ) Pressure ( in mb ) Visibility ( mi km ) Precip ( " mm )
12:51 am 00:51 Clear 42 5.6 22 -5.6 45 45 SE 9 15 30.33 1027 10 16 N/A
1:51 am 01:51 Clear 41 5 22 -5.6 47 47 ESE 9 15 30.33 1027 10 16 N/A
2:51 am 02:51 Clear 39 3.9 22 -5.6 50 50 E 10 17 30.33 1027 10 16 N/A
3:51 am 03:51 Clear 39 3.9 22 -5.6 50 50 E 9 15 30.32 1027 10 16 N/A
4:51 am 04:51 Clear 36 2.2 22 -5.6 57 57 ESE 7 11 30.32 1027 10 16 N/A
5:51 am 05:51 Clear 33 0.6 23 -5 66 66 WNW 6 9 30.36 1028 10 16 N/A
6:51 am 06:51 Clear 32 undefined 23 -5 69 69 N N/A 30.38 1029 10 16 N/A
7:51 am 07:51 Sunny 34 1.1 24 -4.4 67 67 N N/A 30.40 1029 10 16 N/A
8:51 am 08:51 Sunny 43 6.1 21 -6.1 42 42 ESE 7 11 30.39 1029 10 16 N/A
9:51 am 09:51 Sunny 49 9.4 19 -7.2 31 31 SE 15 24 30.39 1029 10 16 N/A
10:51 am 10:51 Sunny 51 10.6 20 -6.7 29 29 SE 10 17 30.37 1028 10 16 N/A
11:51 am 11:51 Sunny 55 12.8 21 -6.1 26 26 ESE 8 13 30.33 1027 10 16 N/A
12:51 pm 12:51 Sunny 58 14.4 19 -7.2 22 22 SE 8 13 30.27 1025 10 16 N/A
1:51 pm 13:51 Sunny 60 15.6 20 -6.7 21 21 SE 8 13 30.23 1024 10 16 N/A
2:51 pm 14:51 Sunny 61 16.1 20 -6.7 20 20 SSE 5 7 30.21 1023 10 16 N/A
3:51 pm 15:51 Sunny 60 15.6 20 -6.7 21 21 S 7 11 30.21 1023 10 16 N/A
4:51 pm 16:51 Sunny 56 13.3 23 -5 28 28 SSE 5 7 30.23 1024 10 16 N/A
5:51 pm 17:51 Clear 50 10 23 -5 35 35 E 9 15 30.24 1024 10 16 N/A
6:51 pm 18:51 Clear 48 8.9 23 -5 37 37 E 9 15 30.24 1024 10 16 N/A
7:51 pm 19:51 Clear 44 6.7 24 -4.4 45 45 ESE 7 11 30.27 1025 10 16 N/A
8:51 pm 20:51 Clear 43 6.1 25 -3.9 49 49 ESE 7 11 30.27 1025 10 16 N/A
9:51 pm 21:51 Clear 43 6.1 24 -4.4 47 47 ESE 7 11 30.26 1025 10 16 N/A
10:51 pm 22:51 Clear 46 7.8 22 -5.6 38 38 ESE 12 19 30.25 1024 10 16 N/A
11:51 pm 23:51 Clear 45 7.2 22 -5.6 40 40 SE 10 17 30.23 1024 10 16 N/A

Powered by AerisWeather